Location: Asheville, NC
(35.6000°N, 82.5500°W)
Time: 02:28:51
(UTC-04:00)

SEEDS - Pass Details

Date: 18 March 2018
Orbit: 586 x 606 km, 97.5° (Epoch: 20 June)

Event Time Altitude Azimuth Distance (km) Brightness Sun altitude
Rises 21:10:58 0° 216° (SW) 2,805 ? -19.1°
Reaches altitude 10° 21:14:48 10° 253° (WSW) 1,916 ? -19.8°
Maximum altitude 21:15:56 11° 269° (W) 1,857 ? -20.1°
Drops below altitude 10° 21:17:05 10° 285° (WNW) 1,923 ? -20.3°
Sets 21:20:58 0° 322° (NW) 2,838 ? -21.0°
